Simultaneous Nadir Overpasses (SNOs) Predictions

Prediction of SNOs between GOES-14 and AQUA Satellite Orbit:

Table of predicted SNOs for the next 14.0 days since TLE Epoch: 2/29/2020
Index Date Time (GOES-14) GOES-14 Lat,Lon AQUA Lat,Lon Distance(km) Time Diff (sec)
1 03/01/2020 08:17:41 0.07,-104.21 -0.76,-100.26 448.43 80
2 03/01/2020 20:39:05 -0.08,-104.03 -0.35,-105.45 160.87 80
3 03/03/2020 20:24:14 -0.08,-104.02 0.24,-102.49 174.33 80
4 03/04/2020 08:45:31 0.08,-104.18 0.81,-107.66 394.43 80
5 03/06/2020 08:33:20 0.09,-104.18 0.22,-104.69 59.20 80
6 03/08/2020 08:23:50 0.09,-104.17 -0.44,-101.74 275.97 80
7 03/08/2020 20:45:13 -0.10,-104.01 -0.71,-106.92 330.95 80
8 03/10/2020 20:30:22 -0.10,-104.00 -0.11,-103.96 4.69 80
9 03/12/2020 20:18:12 -0.10,-103.99 0.56,-101.01 339.29 80
10 03/13/2020 08:39:29 0.10,-104.13 0.50,-106.18 231.77 80




NCC Satellite Simultaneous Nadir Overpasses (SNOs) Prediction Service
